When you browse on this site, cookies collect data to enhance your experience and personalize the content and advertising you see.
Visit our Privacy Policy to learn more. By continuing to use the site, you agree to this use of cookies and data.
  • în România
  • Lista ţărilor
  • Pe 7 zile
  • Temperatura apei
  • Hartă satelitară
  • Meteo pe hartă
  • Widget-uri
  • user-avatar
    Intrare

    Meteo pe oră la Szekszard

    Astăzi, 17 Ianuarie, Joi

    Timp Temperatura Precipitaţii Vânt Presiune Umiditate
    00:00 +1°C° 0 mm 4 m/s 751 mmHg 86%
    01:00 +1°C° 0 mm 4 m/s 751 mmHg 85%
    02:00 +2°C° 0 mm 5 m/s 751 mmHg 85%
    03:00 +2°C° 0 mm 5 m/s 751 mmHg 84%
    04:00 +2°C° 0 mm 5 m/s 751 mmHg 84%
    05:00 +2°C° 0 mm 5 m/s 751 mmHg 83%
    06:00 +2°C° 0 mm 5 m/s 751 mmHg 83%
    07:00 +2°C° 0 mm 6 m/s 751 mmHg 82%
    08:00 +3°C° 0 mm 6 m/s 751 mmHg 78%
    09:00 +5°C° 0 mm 7 m/s 751 mmHg 75%
    10:00 +6°C° 0 mm 7 m/s 751 mmHg 71%
    11:00 +8°C° 0 mm 7 m/s 751 mmHg 68%
    12:00 +9°C° 0 mm 7 m/s 751 mmHg 65%
    13:00 +10°C° 0 mm 7 m/s 751 mmHg 63%
    14:00 +9°C° 0 mm 7 m/s 751 mmHg 64%
    15:00 +8°C° 0 mm 6 m/s 750 mmHg 66%
    16:00 +8°C° 0 mm 5 m/s 750 mmHg 67%
    17:00 +7°C° 0 mm 5 m/s 750 mmHg 69%
    18:00 +6°C° 0 mm 5 m/s 750 mmHg 71%
    19:00 +5°C° 0 mm 5 m/s 750 mmHg 72%
    20:00 +5°C° 0 mm 5 m/s 750 mmHg 75%
    21:00 +5°C° 0 mm 4 m/s 749 mmHg 77%
    22:00 +4°C° 0 mm 4 m/s 749 mmHg 79%
    23:00 +4°C° 0 mm 4 m/s 749 mmHg 80%

    Mâine, 18 Ianuarie, Vineri

    Timp Temperatura Precipitaţii Vânt Presiune Umiditate
    00:00 +4°C° 0 mm 4 m/s 749 mmHg 81%
    01:00 +4°C° 0 mm 3 m/s 749 mmHg 81%
    02:00 +3°C° 0.1 mm 3 m/s 749 mmHg 84%
    03:00 +4°C° 0.1 mm 2 m/s 749 mmHg 86%
    04:00 +4°C° 0.1 mm 1 m/s 749 mmHg 88%
    05:00 +5°C° 0.4 mm 1 m/s 749 mmHg 88%
    06:00 +4°C° 0.4 mm 2 m/s 750 mmHg 88%
    07:00 +4°C° 0.4 mm 2 m/s 750 mmHg 88%
    08:00 +3°C° 0.2 mm 3 m/s 751 mmHg 85%
    09:00 +3°C° 0.2 mm 3 m/s 751 mmHg 82%
    10:00 +3°C° 0.2 mm 4 m/s 752 mmHg 79%
    11:00 +3°C° 0.2 mm 4 m/s 752 mmHg 77%
    12:00 +3°C° 0.2 mm 4 m/s 753 mmHg 74%
    13:00 +2°C° 0.2 mm 5 m/s 753 mmHg 72%
    14:00 +3°C° 0.1 mm 4 m/s 754 mmHg 71%
    15:00 +3°C° 0.1 mm 4 m/s 755 mmHg 71%
    16:00 +1°C° 0.1 mm 4 m/s 755 mmHg 70%
    17:00 +2°C° 0 mm 3 m/s 756 mmHg 71%
    18:00 +2°C° 0 mm 2 m/s 756 mmHg 72%
    19:00 +2°C° 0 mm 2 m/s 757 mmHg 73%
    20:00 +1°C° 0 mm 2 m/s 757 mmHg 74%
    21:00 +1°C° 0 mm 2 m/s 758 mmHg 75%
    22:00 -1°C° 0 mm 2 m/s 758 mmHg 77%
    23:00 -1°C° 0 mm 2 m/s 758 mmHg 77%

    Poimâine, 19 Ianuarie, Sâmbătă

    Timp Temperatura Precipitaţii Vânt Presiune Umiditate
    00:00 -1°C° 0 mm 2 m/s 758 mmHg 77%
    01:00 -1°C° 0 mm 2 m/s 758 mmHg 76%
    02:00 -2°C° 0 mm 2 m/s 758 mmHg 75%
    03:00 0°C° 0 mm 1 m/s 758 mmHg 74%
    04:00 0°C° 0 mm 1 m/s 757 mmHg 73%
    05:00 0°C° 0 mm 1 m/s 757 mmHg 73%
    06:00 0°C° 0 mm 1 m/s 758 mmHg 73%
    07:00 -1°C° 0 mm 1 m/s 758 mmHg 73%
    08:00 -2°C° 0 mm 2 m/s 758 mmHg 70%
    09:00 -1°C° 0 mm 2 m/s 758 mmHg 68%
    10:00 +1°C° 0 mm 2 m/s 758 mmHg 66%
    11:00 +1°C° 0 mm 2 m/s 757 mmHg 65%
    12:00 +2°C° 0 mm 2 m/s 757 mmHg 65%
    13:00 +2°C° 0 mm 2 m/s 757 mmHg 64%
    14:00 +2°C° 0.1 mm 2 m/s 756 mmHg 66%
    15:00 +2°C° 0.1 mm 2 m/s 756 mmHg 68%
    16:00 0°C° 0.1 mm 3 m/s 755 mmHg 69%
    17:00 0°C° 0.1 mm 3 m/s 755 mmHg 73%
    18:00 +1°C° 0.1 mm 2 m/s 755 mmHg 77%
    19:00 -1°C° 0.1 mm 2 m/s 755 mmHg 80%
    20:00 -1°C° 0.1 mm 2 m/s 755 mmHg 83%
    21:00 -1°C° 0.1 mm 2 m/s 755 mmHg 85%
    22:00 -1°C° 0.1 mm 2 m/s 755 mmHg 87%
    23:00 -1°C° 0.1 mm 2 m/s 754 mmHg 89%

    20 Ianuarie, Duminică

    Timp Temperatura Precipitaţii Vânt Presiune Umiditate
    00:00 -1°C° 0.1 mm 2 m/s 754 mmHg 90%
    01:00 +1°C° 0.1 mm 1 m/s 754 mmHg 92%
    02:00 +1°C° 0.3 mm 1 m/s 754 mmHg 93%
    03:00 +1°C° 0.3 mm 1 m/s 753 mmHg 94%
    04:00 +1°C° 0.3 mm 1 m/s 753 mmHg 95%
    05:00 +1°C° 0.2 mm 1 m/s 753 mmHg 95%
    06:00 +1°C° 0.2 mm 1 m/s 753 mmHg 95%
    07:00 0°C° 0.2 mm 1 m/s 753 mmHg 96%
    08:00 +1°C° 0 mm 1 m/s 754 mmHg 93%
    09:00 -1°C° 0 mm 2 m/s 754 mmHg 91%
    10:00 -1°C° 0 mm 2 m/s 754 mmHg 89%
    11:00 +1°C° 0 mm 2 m/s 754 mmHg 86%
    12:00 0°C° 0 mm 3 m/s 754 mmHg 83%
    13:00 +1°C° 0 mm 3 m/s 754 mmHg 80%
    14:00 +2°C° 0 mm 2 m/s 754 mmHg 80%
    15:00 +1°C° 0 mm 2 m/s 754 mmHg 81%
    16:00 +1°C° 0 mm 2 m/s 754 mmHg 81%
    17:00 +2°C° 0 mm 1 m/s 754 mmHg 81%
    18:00 +1°C° 0 mm 1 m/s 755 mmHg 81%
    19:00 +1°C° 0 mm 1 m/s 755 mmHg 81%
    20:00 +1°C° 0 mm 1 m/s 756 mmHg 83%
    21:00 0°C° 0 mm 1 m/s 756 mmHg 84%
    22:00 0°C° 0 mm 1 m/s 756 mmHg 86%
    23:00 -1°C° 0 mm 1 m/s 756 mmHg 86%

    21 Ianuarie, Luni

    Timp Temperatura Precipitaţii Vânt Presiune Umiditate
    00:00 -1°C° 0 mm 1 m/s 756 mmHg 87%
    01:00 -3°C° 0 mm 2 m/s 757 mmHg 88%
    02:00 -3°C° 0 mm 2 m/s 757 mmHg 87%
    03:00 -3°C° 0 mm 2 m/s 757 mmHg 87%
    04:00 -3°C° 0 mm 2 m/s 757 mmHg 87%
    05:00 -3°C° 0 mm 2 m/s 757 mmHg 86%
    06:00 -3°C° 0 mm 2 m/s 757 mmHg 85%
    07:00 -4°C° 0 mm 2 m/s 757 mmHg 85%
    08:00 -3°C° 0 mm 2 m/s 758 mmHg 79%
    09:00 -2°C° 0 mm 2 m/s 758 mmHg 73%
    10:00 -1°C° 0 mm 2 m/s 758 mmHg 67%
    11:00 +1°C° 0 mm 2 m/s 758 mmHg 62%
    12:00 +1°C° 0 mm 2 m/s 758 mmHg 58%
    13:00 +2°C° 0 mm 2 m/s 758 mmHg 53%
    14:00 +1°C° 0 mm 2 m/s 758 mmHg 57%
    15:00 +2°C° 0 mm 1 m/s 758 mmHg 60%
    16:00 +1°C° 0 mm 1 m/s 757 mmHg 64%
    17:00 0°C° 0 mm 1 m/s 758 mmHg 67%
    18:00 0°C° 0 mm 1 m/s 758 mmHg 71%
    19:00 -1°C° 0 mm 1 m/s 758 mmHg 74%
    20:00 -1°C° 0 mm 1 m/s 758 mmHg 76%
    21:00 -1°C° 0 mm 1 m/s 758 mmHg 78%
    22:00 -1°C° 0 mm 1 m/s 757 mmHg 80%
    23:00 -2°C° 0 mm 1 m/s 757 mmHg 82%

    22 Ianuarie, Marţi

    Timp Temperatura Precipitaţii Vânt Presiune Umiditate
    00:00 -2°C° 0 mm 1 m/s 757 mmHg 84%
    01:00 -2°C° 0 mm 1 m/s 757 mmHg 87%
    02:00 -4°C° 0 mm 2 m/s 756 mmHg 88%
    03:00 -4°C° 0 mm 2 m/s 756 mmHg 90%
    04:00 -4°C° 0 mm 2 m/s 755 mmHg 92%
    05:00 -4°C° 0 mm 2 m/s 755 mmHg 93%
    06:00 -5°C° 0 mm 3 m/s 754 mmHg 93%
    07:00 -5°C° 0 mm 3 m/s 754 mmHg 93%
    08:00 -5°C° 0.1 mm 3 m/s 753 mmHg 90%
    09:00 -4°C° 0.1 mm 4 m/s 753 mmHg 86%
    10:00 -5°C° 0.1 mm 5 m/s 752 mmHg 83%
    11:00 -5°C° 0.7 mm 5 m/s 751 mmHg 86%
    12:00 -5°C° 0.7 mm 5 m/s 750 mmHg 89%
    13:00 -5°C° 0.7 mm 5 m/s 749 mmHg 92%
    14:00 -5°C° 1.3 mm 5 m/s 748 mmHg 93%
    15:00 -5°C° 1.3 mm 5 m/s 747 mmHg 94%
    16:00 -5°C° 1.3 mm 5 m/s 746 mmHg 96%
    17:00 -5°C° 1.2 mm 5 m/s 746 mmHg 96%
    18:00 -4°C° 1.2 mm 4 m/s 745 mmHg 96%
    19:00 -4°C° 1.2 mm 3 m/s 745 mmHg 96%
    20:00 -4°C° 0.4 mm 3 m/s 745 mmHg 96%
    21:00 -4°C° 0.4 mm 2 m/s 745 mmHg 96%
    22:00 -4°C° 0.4 mm 2 m/s 745 mmHg 96%
    23:00 -4°C° 0 mm 2 m/s 745 mmHg 96%
    Arată mai mult